Terug naar catalogus

CSTP-4.4

ActiefWetenschapSSO
NORAD 64895·PAYLOAD·🇷🇺 Russia
Deze satellietnaam is nog niet bevestigd door officiële bronnen.

Gelanceerd Jul 25, 2025 vanaf Vostochny Cosmodrome

Loading…

Volgende Passages (komende 24 uur)

TLE

VersSource: Space-Track

Epoch: Sep 14, 2026, 13:16 UTC

1 64895U 25155V   26257.55288680  .00007528  00000-0  25491-3 0  9990
2 64895  97.4688 226.4854 0005942 203.9722 156.1243 15.30862247 94410

Volg CSTP-4.4 in realtime met AllMySat

Download on the App Store